CDT,Max TemperatureF,Mean TemperatureF,Min TemperatureF,Max Dew PointF,MeanDew PointF,Min DewpointF,Max Humidity, Mean Humidity, Min Humidity, Max Sea Level PressureIn, Mean Sea Level PressureIn, Min Sea Level PressureIn, Max VisibilityMiles, Mean VisibilityMiles, Min VisibilityMiles, Max Wind SpeedMPH, Mean Wind SpeedMPH, Max Gust SpeedMPH,PrecipitationIn, CloudCover, Events, WindDirDegrees
2013-10-1,79,65,51,64,60,50,100,77,54,29.98,29.94,29.90,10,7,2,20,9,25,0.00,4,,201
2013-10-2,80,69,58,61,55,44,100,66,32,30.10,30.03,29.99,10,5,0,14,5,18,0.00,4,Fog,67
2013-10-3,77,67,57,69,65,53,100,90,79,29.98,29.93,29.85,10,6,0,16,6,22,0.32,5,Fog-Rain-Thunderstorm,171
2013-10-4,75,69,63,68,65,61,93,86,79,30.00,29.96,29.91,10,6,2,14,5,20,T,4,,136
2013-10-5,79,69,59,70,65,60,93,82,71,29.94,29.88,29.77,10,5,2,18,6,23,0.04,4,Rain,183
2013-10-6,61,51,41,59,45,38,93,70,46,29.81,29.77,29.71,10,10,7,18,7,24,0.03,5,Rain,244
2013-10-7,70,57,43,48,44,40,96,67,37,30.09,29.93,29.80,10,9,3,20,7,26,0.01,4,,269
2013-10-8,77,58,39,51,44,38,96,65,33,30.21,30.16,30.10,10,10,8,15,3,20,0.00,0,,176
2013-10-9,73,58,42,49,45,40,93,63,33,30.26,30.20,30.15,10,10,8,12,4,15,0.00,0,,117
2013-10-10,76,59,41,54,47,39,100,72,43,30.19,30.13,30.05,10,7,1,12,3,14,0.00,0,,120
2013-10-11,77,64,51,56,52,48,89,66,43,30.08,30.02,29.95,10,9,6,21,7,28,0.00,3,,140
2013-10-12,70,57,43,63,55,41,93,73,52,30.20,30.02,29.96,10,8,2,18,7,21,0.22,4,Rain-Thunderstorm,202
2013-10-13,64,50,35,43,37,34,100,68,36,30.42,30.36,30.23,10,10,10,14,4,18,0.00,0,,334
2013-10-14,64,49,33,46,41,32,100,72,44,30.42,30.32,30.14,10,10,9,15,6,20,0.00,1,,85
2013-10-15,67,57,46,61,52,42,100,84,67,30.12,29.90,29.78,10,7,2,17,9,23,0.04,5,Rain,179
2013-10-16,54,50,45,46,44,40,89,80,71,29.96,29.91,29.86,10,10,10,18,10,24,0.00,7,,246
2013-10-17,56,47,37,47,44,35,93,72,51,29.95,29.90,29.85,10,8,3,22,6,28,0.10,6,Rain,252
2013-10-18,50,42,34,43,38,32,100,81,61,29.99,29.94,29.86,10,8,1,18,10,23,0.00,6,,259
2013-10-19,55,47,39,39,36,30,89,65,41,29.94,29.86,29.81,10,10,10,23,9,30,T,6,Rain,241
2013-10-20,63,48,32,47,40,32,96,72,48,29.90,29.82,29.73,10,10,7,17,6,21,T,5,,205
2013-10-21,53,40,27,47,31,24,85,64,42,30.01,29.93,29.82,10,10,10,26,12,33,T,5,,268
2013-10-22,38,31,23,36,31,21,100,88,76,30.02,29.97,29.93,10,6,2,8,2,9,0.13,6,Rain-Snow,303
2013-10-23,46,36,25,31,28,24,92,73,53,30.05,30.01,29.95,10,10,5,18,9,23,T,4,Rain,290
2013-10-24,45,34,23,30,25,20,88,66,43,30.34,30.19,30.04,10,10,10,18,9,24,0.00,5,,287
2013-10-25,52,36,20,30,24,17,92,64,35,30.44,30.30,30.07,10,10,10,22,9,29,0.00,1,,236
2013-10-26,56,41,26,35,29,24,85,62,38,30.11,29.98,29.88,10,10,10,23,12,30,0.00,4,,270
2013-10-27,55,39,23,32,27,22,92,65,38,30.10,30.05,30.00,10,10,10,16,5,22,0.00,0,,227
2013-10-28,56,41,26,41,34,24,92,74,55,30.37,30.26,30.08,10,10,9,17,8,21,0.00,1,,51
2013-10-29,56,45,33,45,38,32,100,77,54,30.36,30.27,30.15,10,8,5,12,5,14,T,3,Rain,95
2013-10-30,62,55,48,59,52,45,100,90,80,30.14,30.00,29.76,7,2,0,17,7,23,1.02,8,Fog-Rain,120
2013-10-31,63,54,44,61,56,42,97,92,86,29.77,29.47,29.24,10,6,1,24,12,33,1.04,8,Rain,226